AFR22J LFPG-KLAX

Flight info

Callsign AFR22J
Flight time N/A
Altitude 30000
Route ATREX6G ATREX DCT VESAN DCT RATUK DCT SOVAT L613 SANDY DCT OKSAW DCT TEWXI DCT VATRY DCT DIGAN DCT MOMIN DCT DOGAL/M084F320 DCT 54N020W 53N030W 52N040W 51N050W DCT ALLRY/N0484F320 N482C MIILS/N0482F340 Q907 SIKBO Q905 HOCKE Q824 FNT J36 DABJU/N0487F360 J36 DUTYS J16 MCW J148 ONL J114 SNY J84 FROGS J100 SAKES Q70 BAWER Q96 PURSE BOGET2
Aircraft B77W/H-SDE2E3FGHIJ5LORVWXY/LB1D1

Departure

Time 2026-05-01 07:50
Airport Charles de Gaulle International Airport (LFPG)

Arrival

Time N/A
Airport Los Angeles International Airport (KLAX)
Time Latitude Longitude Altitude Speed Heading
2026-05-01 07:24 49.00138 2.57723 350 ft 0 kts 356°
2026-05-01 07:33 49.00135 2.57724 350 ft 2 kts 356°
2026-05-01 07:34 49.00120 2.57724 350 ft 2 kts
2026-05-01 07:34 49.00093 2.57710 350 ft 2 kts 31°
2026-05-01 07:34 49.00080 2.57696 350 ft 2 kts 43°
2026-05-01 07:35 49.00070 2.57680 350 ft 2 kts 53°
2026-05-01 07:35 49.00062 2.57661 350 ft 2 kts 65°
2026-05-01 07:35 49.00057 2.57640 351 ft 2 kts 76°
2026-05-01 07:35 49.00054 2.57620 352 ft 0 kts 85°
2026-05-01 07:36 49.00054 2.57616 352 ft 0 kts 86°
2026-05-01 07:37 49.00054 2.57617 352 ft 0 kts 86°
2026-05-01 07:38 49.00056 2.57654 350 ft 4 kts 85°
2026-05-01 07:38 49.00061 2.57725 350 ft 8 kts 85°
2026-05-01 07:38 49.00073 2.57940 346 ft 10 kts 86°
2026-05-01 07:39 49.00078 2.58055 345 ft 10 kts 86°
2026-05-01 07:39 49.00084 2.58164 343 ft 10 kts 85°
2026-05-01 07:39 49.00039 2.58316 338 ft 10 kts 189°
2026-05-01 07:40 49.00008 2.58242 339 ft 9 kts 263°
2026-05-01 07:40 49.00000 2.58099 341 ft 14 kts 265°
2026-05-01 07:40 48.99992 2.57963 344 ft 11 kts 265°
2026-05-01 07:40 48.99985 2.57838 346 ft 12 kts 265°
2026-05-01 07:41 48.99979 2.57714 349 ft 12 kts 265°
2026-05-01 07:41 48.99970 2.57551 354 ft 14 kts 265°
2026-05-01 07:41 48.99955 2.57263 359 ft 15 kts 266°
2026-05-01 07:42 48.99947 2.57108 358 ft 14 kts 266°
2026-05-01 07:42 48.99938 2.56946 357 ft 15 kts 265°
2026-05-01 07:42 48.99928 2.56770 354 ft 17 kts 265°
2026-05-01 07:42 48.99918 2.56583 350 ft 16 kts 265°
2026-05-01 07:43 48.99909 2.56418 348 ft 15 kts 265°
2026-05-01 07:43 48.99900 2.56250 345 ft 15 kts 266°
2026-05-01 07:43 48.99891 2.55960 339 ft 12 kts 277°
2026-05-01 07:44 48.99862 2.55806 336 ft 3 kts 187°
2026-05-01 07:44 48.99848 2.55804 336 ft 3 kts 186°
2026-05-01 07:45 48.99818 2.55803 337 ft 3 kts 179°
2026-05-01 07:45 48.99794 2.55804 337 ft 3 kts 177°
2026-05-01 07:45 48.99766 2.55807 338 ft 3 kts 176°
2026-05-01 07:45 48.99745 2.55809 338 ft 3 kts 176°
2026-05-01 07:46 48.99725 2.55812 339 ft 1 kts 176°
2026-05-01 07:46 48.99722 2.55812 339 ft 0 kts 176°
2026-05-01 07:47 48.99718 2.55812 339 ft 3 kts 176°
2026-05-01 07:47 48.99681 2.55817 339 ft 5 kts 176°
2026-05-01 07:47 48.99643 2.55821 340 ft 5 kts 173°
2026-05-01 07:48 48.99604 2.55901 340 ft 4 kts 90°
2026-05-01 07:48 48.99605 2.55919 340 ft 0 kts 88°
2026-05-01 07:49 48.99620 2.56212 343 ft 68 kts 86°
2026-05-01 07:49 48.99681 2.57378 351 ft 149 kts 86°
2026-05-01 07:50 48.99771 2.59206 720 ft 188 kts 87°
2026-05-01 07:50 48.99992 2.63194 2282 ft 202 kts 88°
2026-05-01 07:50 49.00106 2.65389 2733 ft 217 kts 87°
2026-05-01 07:51 49.00231 2.67765 3175 ft 233 kts 86°
2026-05-01 07:51 49.00366 2.70313 3678 ft 250 kts 86°
2026-05-01 07:51 49.00505 2.72986 4368 ft 259 kts 86°
2026-05-01 07:52 49.00792 2.78517 5974 ft 268 kts 87°
2026-05-01 07:52 49.00936 2.81320 6765 ft 272 kts 87°
2026-05-01 07:52 49.01133 2.84213 7569 ft 275 kts 77°
2026-05-01 07:53 49.03441 2.88706 9007 ft 288 kts 26°
2026-05-01 07:53 49.05391 2.89389 9694 ft 294 kts 358°
2026-05-01 07:53 49.07407 2.88648 10159 ft 301 kts 332°
2026-05-01 07:53 49.09000 2.86574 10269 ft 310 kts 301°
2026-05-01 07:54 49.10965 2.80420 11098 ft 342 kts 295°
2026-05-01 07:55 49.16745 2.73278 12308 ft 390 kts 339°
2026-05-01 07:55 49.21930 2.70252 13741 ft 405 kts 340°
2026-05-01 07:56 49.29912 2.65597 16028 ft 420 kts 340°
2026-05-01 07:56 49.35437 2.62363 17455 ft 430 kts 340°
2026-05-01 07:57 49.38208 2.60737 18147 ft 435 kts 340°
2026-05-01 07:57 49.43911 2.57387 19667 ft 442 kts 340°
2026-05-01 07:58 49.49703 2.53975 20921 ft 453 kts 340°
2026-05-01 07:58 49.55591 2.50497 22241 ft 461 kts 340°
2026-05-01 07:59 49.61640 2.46914 23556 ft 468 kts 340°
2026-05-01 07:59 49.67737 2.43294 24719 ft 476 kts 340°
2026-05-01 08:00 49.80222 2.35862 26971 ft 490 kts 341°
2026-05-01 08:01 49.89888 2.30291 28511 ft 501 kts 340°
2026-05-01 08:01 49.93170 2.28394 28980 ft 505 kts 340°
2026-05-01 08:01 49.96471 2.26482 29496 ft 507 kts 340°
2026-05-01 08:02 50.03140 2.22610 30186 ft 510 kts 340°